GW2922 Weather Reports


time (UTC)temp
F
wind
direction
speed
knots
gust
knots
rain 1hr
in
rain 24hr
in
rain mn
in
humidity
%
barometer
mb
20260508120954 49 357 0.9 5.2 0.00 0.00 0.00 88 1019.2
20260508120451 48 133 0.0 1.7 0.00 0.00 0.00 88 1019.2
20260508115949 48 358 1.7 2.6 0.00 0.00 0.00 89 1018.9
20260508115447 48 5 0.0 6.1 0.00 0.00 0.00 89 1019.2
20260508114943 48 120 0.0 1.7 0.00 0.00 0.00 90 1018.9
20260508114440 48 121 0.9 2.6 0.00 0.00 0.00 91 1018.9
20260508113937 48 99 0.0 1.7 0.00 0.00 0.00 91 1018.9
20260508113434 47 359 0.0 3.5 0.00 0.00 0.00 92 1018.9
20260508112931 47 123 0.0 0.0 0.00 0.00 0.00 92 1018.9
20260508112428 47 57 0.0 2.6 0.00 0.00 0.00 92 1018.9
20260508111925 47 93 0.0 0.9 0.00 0.00 0.00 92 1018.9
20260508111422 46 83 0.0 0.0 0.00 0.00 0.00 92 1018.5
20260508110919 46 75 0.0 0.0 0.00 0.00 0.00 92 1018.5
20260508110416 46 84 0.0 0.0 0.00 0.00 0.00 92 1018.5
20260508105910 46 81 0.0 0.0 0.00 0.00 0.00 92 1018.5
20260508105407 46 128 0.0 0.0 0.00 0.00 0.00 92 1018.5
20260508104904 46 116 0.0 0.0 0.00 0.00 0.00 91 1018.5
20260508104401 46 113 0.0 0.0 0.00 0.00 0.00 91 1018.5
20260508103858 46 114 0.0 0.0 0.00 0.00 0.00 91 1018.5
20260508103355 46 136 0.0 0.0 0.00 0.00 0.00 91 1018.9
20260508102852 46 116 0.0 0.0 0.00 0.00 0.00 91 1018.5
20260508102351 47 105 0.0 0.0 0.00 0.00 0.00 91 1018.5
20260508101848 47 109 0.0 0.0 0.00 0.00 0.00 91 1018.5
20260508101345 47 115 0.0 0.0 0.00 0.00 0.00 91 1018.5
20260508100842 47 116 0.0 0.0 0.00 0.00 0.00 91 1018.5
20260508100341 47 117 0.0 0.0 0.00 0.00 0.00 90 1018.5
20260508095836 47 123 0.0 0.0 0.00 0.00 0.00 90 1018.5
20260508095334 47 139 0.0 0.0 0.00 0.00 0.00 90 1018.5
20260508094831 47 116 0.0 0.0 0.00 0.00 0.00 90 1018.5
20260508094328 47 116 0.0 0.0 0.00 0.00 0.00 90 1018.5
20260508093825 48 115 0.0 0.0 0.00 0.00 0.00 90 1018.5
20260508093322 48 112 0.0 0.0 0.00 0.00 0.00 89 1018.5
20260508092820 48 116 0.0 0.0 0.00 0.00 0.00 89 1018.5
20260508092318 48 128 0.0 0.0 0.00 0.00 0.00 89 1018.5
20260508091816 48 116 0.0 0.0 0.00 0.00 0.00 89 1018.5
20260508091311 48 116 0.0 0.0 0.00 0.00 0.00 89 1018.5
20260508090810 48 121 0.0 0.0 0.00 0.00 0.00 89 1018.5
20260508090308 48 136 0.0 0.0 0.00 0.00 0.00 88 1018.5
20260508085803 48 136 0.0 0.0 0.00 0.00 0.00 88 1018.5
20260508085300 48 137 0.0 0.0 0.00 0.00 0.00 87 1018.5
20260508084756 47 137 0.0 0.0 0.00 0.00 0.00 87 1018.5
20260508084254 48 119 0.0 0.0 0.00 0.00 0.00 87 1018.5
20260508083751 48 119 0.0 0.0 0.00 0.00 0.00 87 1018.5
20260508083248 48 119 0.0 0.0 0.00 0.00 0.00 87 1018.5
20260508082748 48 119 0.0 0.0 0.00 0.00 0.00 86 1018.9
20260508082246 48 119 0.0 0.0 0.00 0.00 0.00 86 1018.5
20260508081743 48 119 0.0 0.0 0.00 0.00 0.00 86 1018.5
20260508081240 48 131 0.0 0.0 0.00 0.00 0.00 86 1018.9
20260508080737 48 126 0.0 0.0 0.00 0.00 0.00 86 1018.5
20260508080235 48 125 0.0 0.0 0.00 0.00 0.00 86 1018.9
20260508075731 48 118 0.0 0.0 0.00 0.00 0.00 86 1018.9
20260508075228 48 109 0.0 0.0 0.00 0.00 0.00 87 1018.5
20260508074726 48 112 0.0 0.0 0.00 0.00 0.00 87 1018.5
20260508074223 48 98 0.0 0.0 0.00 0.00 0.00 87 1018.9
20260508073720 48 121 0.0 0.0 0.00 0.00 0.00 86 1018.9
20260508073218 48 125 0.0 0.0 0.00 0.00 0.00 87 1018.9
20260508072714 48 135 0.0 0.0 0.00 0.00 0.00 87 1018.9
20260508072211 48 113 0.0 0.0 0.00 0.00 0.00 86 1018.9
20260508071708 48 116 0.0 0.0 0.00 0.00 0.00 86 1018.9
20260508071206 48 120 0.0 0.0 0.00 0.00 0.00 86 1018.9
20260508070703 48 109 0.0 0.0 0.00 0.00 0.00 86 1018.9
20260508070202 48 114 0.0 0.0 0.00 0.00 0.00 86 1018.9
20260508065659 48 109 0.0 0.0 0.00 0.00 0.00 86 1019.2
20260508065157 48 317 0.9 2.6 0.00 0.00 0.00 87 1019.2
20260508064654 48 93 0.0 0.9 0.00 0.00 0.00 87 1019.2
20260508064152 48 108 0.0 0.9 0.00 0.00 0.00 87 1019.2
20260508063649 48 112 0.0 1.7 0.00 0.00 0.00 87 1018.9
20260508063147 48 83 0.9 0.9 0.00 0.00 0.00 87 1019.2
20260508062644 48 89 0.9 0.9 0.00 0.00 0.00 88 1019.2
20260508062141 48 25 1.7 1.7 0.00 0.00 0.00 88 1019.2
20260508061638 48 93 0.0 0.9 0.00 0.00 0.00 88 1019.2
20260508061136 48 91 1.7 1.7 0.00 0.00 0.00 88 1019.2
20260508060632 48 97 0.0 1.7 0.00 0.00 0.00 88 1019.6
20260508060129 48 341 1.7 2.6 0.00 0.00 0.00 88 1019.2
20260508055625 48 80 0.9 1.7 0.00 0.00 0.00 87 1019.6
20260508055122 48 55 0.9 0.9 0.00 0.00 0.00 87 1019.6
20260508054618 48 62 0.0 0.9 0.00 0.00 0.00 87 1019.6
20260508054116 48 172 0.9 2.6 0.00 0.00 0.00 87 1019.6
20260508053613 48 101 0.0 0.0 0.00 0.00 0.00 87 1019.6
20260508053111 48 113 0.0 0.9 0.00 0.00 0.00 86 1019.6
20260508052608 48 115 0.0 0.9 0.00 0.00 0.00 86 1019.6
20260508052105 48 120 0.0 0.9 0.00 0.00 0.00 86 1019.6
20260508051601 48 69 0.0 0.0 0.00 0.00 0.00 86 1019.6
20260508051056 48 110 0.0 0.9 0.00 0.00 0.00 86 1019.6
20260508050553 48 120 0.0 0.0 0.00 0.00 0.00 86 1019.6
20260508050050 49 114 0.0 0.0 0.00 0.00 0.00 85 1019.6
20260508045546 49 132 0.0 0.0 0.00 0.00 0.00 85 1019.6
20260508045044 49 104 0.0 0.0 0.00 0.00 0.00 84 1019.6
20260508044541 49 101 0.0 0.9 0.00 0.00 0.00 84 1019.6
20260508044037 49 107 0.0 0.0 0.00 0.00 0.00 84 1019.6
20260508043534 49 119 0.9 0.9 0.00 0.00 0.00 84 1019.6
20260508043031 50 39 0.0 0.9 0.00 0.00 0.00 84 1019.6
20260508042528 50 97 0.0 0.0 0.00 0.00 0.00 83 1019.6
20260508042025 50 115 0.0 1.7 0.00 0.00 0.00 83 1019.9
20260508041521 50 105 0.0 0.9 0.00 0.00 0.00 83 1019.9
20260508041018 50 114 0.0 0.0 0.00 0.00 0.00 83 1019.9
20260508040515 50 98 0.0 0.9 0.00 0.00 0.00 83 1019.6
20260508040013 50 108 0.0 0.0 0.00 0.00 0.00 82 1019.9
20260508035509 50 100 0.0 1.7 0.00 0.00 0.00 82 1019.9
20260508035006 51 2 0.9 0.9 0.00 0.00 0.00 82 1019.9
20260508034504 51 145 0.0 0.0 0.00 0.00 0.00 82 1019.6
20260508034000 51 355 1.7 1.7 0.00 0.00 0.00 81 1019.9
20260508033458 51 91 0.9 0.9 0.00 0.00 0.00 81 1019.6
20260508032955 51 112 0.0 0.9 0.00 0.00 0.00 81 1019.6
20260508032453 52 123 0.0 0.9 0.00 0.00 0.00 80 1019.9
20260508031949 52 109 0.0 0.0 0.00 0.00 0.00 80 1019.6
20260508031447 52 110 0.0 0.0 0.00 0.00 0.00 79 1019.6
20260508030942 52 253 0.0 0.9 0.00 0.00 0.00 79 1019.6
20260508030440 53 51 0.9 1.7 0.00 0.00 0.00 79 1019.6
20260508025937 53 138 0.9 1.7 0.00 0.00 0.00 79 1019.6
20260508025433 53 6 0.9 3.5 0.00 0.00 0.00 79 1019.9
20260508024931 53 69 0.9 2.6 0.00 0.00 0.00 78 1019.9
20260508024427 53 345 0.9 2.6 0.00 0.00 0.00 78 1019.9
20260508023923 53 118 0.9 1.7 0.00 0.00 0.00 78 1019.9
20260508023420 54 81 0.0 0.9 0.00 0.00 0.00 78 1019.9
20260508022918 54 105 0.0 2.6 0.00 0.00 0.00 78 1019.9
20260508022413 54 342 1.7 1.7 0.00 0.00 0.00 78 1019.9
20260508021910 54 92 0.0 1.7 0.00 0.00 0.00 78 1019.9
20260508021406 54 96 0.0 3.5 0.00 0.00 0.00 77 1019.9
20260508020902 54 91 0.0 1.7 0.00 0.00 0.00 77 1019.9
20260508020400 54 339 0.9 1.7 0.00 0.00 0.00 77 1020.2
20260508015857 55 82 0.9 3.5 0.00 0.00 0.00 77 1019.9
20260508015355 56 108 0.9 7.0 0.00 0.00 0.00 75 1019.9
20260508014851 58 60 2.6 5.2 0.00 0.00 0.00 71 1019.9
20260508014348 59 77 1.7 1.7 0.00 0.00 0.00 68 1019.9
20260508013843 59 257 0.9 3.5 0.00 0.00 0.00 67 1020.2
20260508013340 61 84 0.9 1.7 0.00 0.00 0.00 64 1020.2
20260508012837 62 280 0.9 1.7 0.00 0.00 0.00 62 1020.2
20260508012335 62 130 0.0 1.7 0.00 0.00 0.00 64 1019.9
20260508011832 62 97 0.9 1.7 0.00 0.00 0.00 63 1020.2
20260508011329 62 117 0.0 0.9 0.00 0.00 0.00 62 1020.2
20260508010821 62 61 1.7 3.5 0.00 0.00 0.00 63 1020.2
20260508010319 63 77 0.9 0.9 0.00 0.00 0.00 62 1020.2
20260508005816 63 105 0.0 1.7 0.00 0.00 0.00 61 1020.2
20260508005313 64 113 0.0 1.7 0.00 0.00 0.00 61 1020.2
20260508004809 63 96 0.9 1.7 0.00 0.00 0.00 61 1020.2
20260508004305 62 114 0.0 1.7 0.00 0.00 0.00 63 1020.2
20260508003801 62 88 0.9 0.9 0.00 0.00 0.00 62 1020.2
20260508003259 62 113 1.7 1.7 0.00 0.00 0.00 62 1020.2
20260508002755 62 111 0.0 1.7 0.00 0.00 0.00 62 1020.2
20260508002252 62 104 0.0 0.9 0.00 0.00 0.00 60 1020.2
20260508001748 63 98 0.0 1.7 0.00 0.00 0.00 60 1020.2
20260508001244 64 114 0.9 1.7 0.00 0.00 0.00 61 1020.2
20260508000741 64 128 1.7 1.7 0.00 0.00 0.00 60 1020.6
20260508000238 63 145 1.7 3.5 0.00 0.00 0.00 60 1020.2
20260507235734 62 83 0.9 1.7 0.00 0.00 0.00 61 1020.2
20260507235232 63 80 0.9 1.7 0.00 0.00 0.00 61 1020.6
20260507234728 63 108 0.0 1.7 0.00 0.00 0.00 61 1020.2
20260507234225 63 207 3.5 3.5 0.00 0.00 0.00 60 1020.2
20260507233721 63 172 3.5 5.2 0.00 0.00 0.00 60 1020.2
20260507233220 63 155 2.6 5.2 0.00 0.00 0.00 60 1020.2
20260507232716 63 150 0.0 1.7 0.00 0.00 0.00 60 1020.6
20260507232214 63 66 0.9 1.7 0.00 0.00 0.00 61 1020.6
20260507231710 62 114 0.9 1.7 0.00 0.00 0.00 62 1020.6
20260507231207 62 116 1.7 1.7 0.00 0.00 0.00 62 1020.6
20260507230703 62 112 0.9 1.7 0.00 0.00 0.00 61 1020.6
20260507230200 63 96 0.9 7.0 0.00 0.00 0.00 59 1020.6
20260507225655 64 111 1.7 2.6 0.00 0.00 0.00 59 1020.9
20260507225152 64 109 0.0 0.9 0.00 0.00 0.00 58 1020.9
20260507224647 65 106 0.9 2.6 0.00 0.00 0.00 58 1020.6
20260507224144 63 107 1.7 2.6 0.00 0.00 0.00 59 1020.9
20260507223640 65 110 1.7 2.6 0.00 0.00 0.00 57 1020.9
20260507223137 64 67 0.9 3.5 0.00 0.00 0.00 59 1020.9
20260507222634 64 194 0.9 5.2 0.00 0.00 0.00 59 1020.9
20260507222130 63 142 1.7 1.7 0.00 0.00 0.00 59 1020.9
20260507221626 63 82 0.9 3.5 0.00 0.00 0.00 60 1020.9
20260507221123 62 97 0.9 2.6 0.00 0.00 0.00 61 1021.3
20260507220620 64 108 3.5 5.2 0.00 0.00 0.00 58 1021.3
20260507220118 64 113 1.7 6.1 0.00 0.00 0.00 59 1021.3
20260507215614 64 103 0.9 2.6 0.00 0.00 0.00 61 1021.3
20260507215112 63 103 0.9 2.6 0.00 0.00 0.00 59 1021.3
20260507214609 64 90 0.9 1.7 0.00 0.00 0.00 59 1021.6
20260507214105 64 77 0.9 2.6 0.00 0.00 0.00 59 1021.3
20260507213601 64 94 1.7 2.6 0.00 0.00 0.00 58 1021.3
20260507213059 64 92 1.7 3.5 0.00 0.00 0.00 59 1021.3
20260507212554 63 126 1.7 3.5 0.00 0.00 0.00 59 1021.6
20260507212051 62 135 0.9 2.6 0.00 0.00 0.00 61 1021.6
20260507211548 62 177 2.6 6.1 0.00 0.00 0.00 62 1021.9
20260507211044 62 96 0.0 2.6 0.00 0.00 0.00 61 1021.6
20260507210542 62 113 1.7 6.1 0.00 0.00 0.00 62 1021.6
20260507210038 61 89 0.9 5.2 0.00 0.00 0.00 63 1021.9
20260507205535 63 195 4.3 6.1 0.00 0.00 0.00 60 1021.9
20260507205031 62 85 3.5 7.0 0.00 0.00 0.00 61 1021.9
20260507204527 60 89 4.3 6.1 0.00 0.00 0.00 65 1021.9
20260507204025 61 124 1.7 7.0 0.00 0.00 0.00 64 1021.9
20260507203523 62 116 2.6 5.2 0.00 0.00 0.00 62 1022.3
20260507203020 62 131 0.9 1.7 0.00 0.00 0.00 64 1022.3
20260507202516 61 117 0.0 2.6 0.00 0.00 0.00 63 1022.3
20260507202012 61 113 0.9 1.7 0.00 0.00 0.00 63 1022.3
20260507201508 62 103 1.7 7.8 0.00 0.00 0.00 62 1022.3
20260507201004 62 105 0.9 5.2 0.00 0.00 0.00 64 1022.3
20260507200500 61 105 1.7 6.1 0.00 0.00 0.00 62 1022.3
20260507195955 60 112 0.0 1.7 0.00 0.00 0.00 65 1022.3
20260507195453 63 62 1.7 2.6 0.00 0.00 0.00 61 1022.3
20260507194951 61 75 0.9 2.6 0.00 0.00 0.00 62 1022.3
20260507194447 59 86 0.0 5.2 0.00 0.00 0.00 67 1022.3
20260507193943 60 98 0.9 1.7 0.00 0.00 0.00 64 1022.3
20260507193440 60 84 0.9 1.7 0.00 0.00 0.00 64 1022.3
20260507192937 61 56 0.9 3.5 0.00 0.00 0.00 64 1022.3
20260507192433 60 163 0.9 3.5 0.00 0.00 0.00 65 1022.3
20260507191930 61 96 1.7 1.7 0.00 0.00 0.00 63 1022.6
20260507191426 59 85 0.0 3.5 0.00 0.00 0.00 66 1022.3
20260507190923 61 104 0.9 2.6 0.00 0.00 0.00 64 1022.3
20260507190421 61 80 0.9 3.5 0.00 0.00 0.00 63 1022.3
20260507185920 62 103 0.9 1.7 0.00 0.00 0.00 63 1022.6
20260507185416 59 101 0.9 2.6 0.00 0.00 0.00 68 1022.6
20260507184913 58 71 1.7 1.7 0.00 0.00 0.00 67 1022.6
20260507184411 60 79 3.5 3.5 0.00 0.00 0.00 65 1022.6
20260507183908 60 120 0.0 1.7 0.00 0.00 0.00 66 1022.6
20260507183405 59 116 0.0 1.7 0.00 0.00 0.00 67 1022.6
20260507182903 59 184 2.6 3.5 0.00 0.00 0.00 67 1022.6
20260507182358 60 125 1.7 5.2 0.00 0.00 0.00 66 1022.6
20260507181855 57 97 0.9 1.7 0.00 0.00 0.00 69 1022.6
20260507181350 59 77 3.5 5.2 0.00 0.00 0.00 68 1022.6
20260507180848 59 54 1.7 2.6 0.00 0.00 0.00 67 1022.6
20260507180344 59 99 1.7 1.7 0.00 0.00 0.00 66 1022.6
20260507175840 59 114 0.0 1.7 0.00 0.00 0.00 67 1022.6
20260507175337 57 179 0.0 0.9 0.00 0.00 0.00 68 1022.6
20260507174835 59 77 1.7 2.6 0.00 0.00 0.00 65 1022.9
20260507174332 57 100 0.9 0.9 0.00 0.00 0.00 68 1022.9
20260507173829 57 83 1.7 2.6 0.00 0.00 0.00 69 1022.6
20260507173326 57 44 1.7 2.6 0.00 0.00 0.00 68 1022.6
20260507172822 57 108 3.5 7.0 0.00 0.00 0.00 72 1022.6
20260507172319 57 144 2.6 3.5 0.00 0.00 0.00 71 1022.6
20260507171815 57 172 4.3 5.2 0.00 0.00 0.00 70 1022.6
20260507171312 56 201 1.7 2.6 0.00 0.00 0.00 71 1022.3
20260507170809 55 104 0.0 2.6 0.00 0.00 0.00 73 1022.6
20260507170306 56 65 0.0 0.9 0.00 0.00 0.00 72 1022.6
20260507165801 55 180 2.6 3.5 0.00 0.00 0.00 72 1022.3
20260507165258 54 84 0.9 1.7 0.00 0.00 0.00 74 1022.6
20260507164754 55 96 0.0 0.9 0.00 0.00 0.00 74 1022.6
20260507164251 54 112 0.0 0.9 0.00 0.00 0.00 74 1022.6
20260507163748 54 76 0.0 0.9 0.00 0.00 0.00 75 1022.6
20260507163246 53 115 0.0 0.9 0.00 0.00 0.00 77 1022.6
20260507162742 53 53 3.5 3.5 0.00 0.00 0.00 76 1022.6
20260507162238 53 93 0.0 0.0 0.00 0.00 0.00 76 1022.6
20260507161735 53 172 0.0 1.7 0.00 0.00 0.00 77 1022.6
20260507161231 53 250 0.9 1.7 0.00 0.00 0.00 77 1022.6
20260507160727 53 341 1.7 3.5 0.00 0.00 0.00 76 1022.6
20260507160224 53 354 0.0 0.9 0.00 0.00 0.00 76 1022.6
20260507155720 53 353 1.7 2.6 0.00 0.00 0.00 75 1022.9
20260507155216 52 102 0.0 1.7 0.00 0.00 0.00 76 1022.6
20260507154712 52 349 1.7 3.5 0.00 0.00 0.00 76 1022.9
20260507154211 52 18 0.9 1.7 0.00 0.00 0.00 76 1022.9
20260507153707 52 100 0.0 1.7 0.00 0.00 0.00 76 1022.6
20260507153203 52 113 0.0 0.9 0.00 0.00 0.00 77 1022.9
20260507152700 51 95 0.0 0.9 0.00 0.00 0.00 77 1022.9
20260507152156 51 102 0.0 0.9 0.00 0.00 0.00 77 1022.9
20260507151652 51 68 0.9 1.7 0.00 0.00 0.00 78 1022.9
20260507151149 51 100 0.0 0.0 0.00 0.00 0.00 78 1022.9
20260507150646 50 111 0.0 0.9 0.00 0.00 0.00 78 1022.6
20260507150143 50 98 0.0 0.0 0.00 0.00 0.00 78 1022.9
20260507145638 50 87 0.9 0.9 0.00 0.00 0.00 78 1022.6
20260507145135 50 106 0.0 0.0 0.00 0.00 0.00 78 1022.6
20260507144631 50 113 0.9 2.6 0.00 0.00 0.00 78 1022.6
20260507144130 50 137 0.0 0.9 0.00 0.00 0.00 78 1022.3
20260507143626 50 158 0.9 2.6 0.00 0.00 0.00 78 1022.6
20260507143123 50 85 0.9 1.7 0.00 0.00 0.00 79 1022.3
20260507142619 50 343 0.0 1.7 0.00 0.00 0.00 79 1022.6
20260507142116 50 10 0.9 0.9 0.00 0.00 0.00 80 1022.6
20260507141612 50 154 0.0 0.9 0.00 0.00 0.00 80 1022.6
20260507141109 50 92 0.9 0.9 0.00 0.00 0.00 80 1022.3
20260507140605 50 111 0.0 0.0 0.00 0.00 0.00 81 1022.6
20260507135559 49 91 0.0 0.9 0.00 0.00 0.00 81 1022.6
20260507135051 49 91 0.0 0.0 0.00 0.00 0.00 80 1022.6
20260507134548 49 92 0.0 0.0 0.00 0.00 0.00 81 1022.3
20260507134043 49 43 0.0 0.9 0.00 0.00 0.00 81 1022.6
20260507133540 49 113 0.0 0.9 0.00 0.00 0.00 81 1022.6
20260507133038 49 94 0.0 1.7 0.00 0.00 0.00 81 1022.3
20260507132534 49 110 0.0 0.9 0.00 0.00 0.00 81 1022.6
20260507132031 49 111 0.0 0.0 0.00 0.00 0.00 82 1022.6
20260507131528 49 41 0.9 0.9 0.00 0.00 0.00 82 1022.6
20260507131025 48 356 2.6 2.6 0.00 0.00 0.00 82 1022.6
20260507130522 49 324 0.9 1.7 0.00 0.00 0.00 82 1022.6
20260507130020 49 91 0.0 2.6 0.00 0.00 0.00 82 1022.6
20260507125518 48 2 2.6 3.5 0.00 0.00 0.00 82 1022.6
20260507125015 49 142 0.9 1.7 0.00 0.00 0.00 83 1022.6
20260507124512 49 85 0.0 0.9 0.00 0.00 0.00 83 1022.6
20260507124010 49 89 0.9 2.6 0.00 0.00 0.00 83 1022.6
20260507123508 49 75 0.9 2.6 0.00 0.00 0.00 83 1022.6
20260507123004 49 327 0.0 0.9 0.00 0.00 0.00 83 1022.6
20260507122459 49 324 0.9 0.9 0.00 0.00 0.00 82 1022.6
20260507121955 49 324 0.9 2.6 0.00 0.00 0.00 82 1022.9
20260507121451 49 333 0.9 2.6 0.00 0.00 0.00 82 1022.6